User: anonymous   Login
Location: Pilipovskiye Korichintsy
(49.1833°N, 27.4667°E)
Time: 01:40:48
(UTC+00:00)
Language:

Landsat 5 - Orbit

View from above orbital plane
View from above orbital plane
View from above satellite
View from above satellite

Ground track
Ground track

The orbit data is extracted from the following two-line orbital elements,

1 14780U 84021A   20272.44077574 +.00000229 +00000-0 +27198-4 0  9990
2 14780 098.1845 073.4099 0089863 185.1022 174.9289 14.92110186954676
Epoch (UTC): 28 September 2020 10:34:43
Eccentricity: 0.0089863
inclination: 98.1845°
perigee height: 529 km
apogee height: 654 km
right ascension of ascending node: 73.4099°
argument of perigee: 185.1022°
revolutions per day: 14.92110186
mean anomaly at epoch: 174.9289°
orbit number at epoch: 95467

The dashed part of the orbit path shows where the satellite is in the earth's shadow,  

DLR